Showing default

IRIDE-MS1-EAG2-11, 68453

Orbit data source: Space-Track

IRIDE-MS1-EAG2-11, 68453 is an Italian payload satellite in SSO that was launched on Mon, 30 Mar 2026 UTC via an FALCON 9 launch vehicle from the Air Force Western Test Range (AFWTR). Payload-class satellites include a variety of spacecraft equipped with specific instruments for various scientific and technological missions. These include communications satellites like Starlink; space stations such as the ISS; scientific satellites like the Hubble; Earth observation satellites from companies like Planet Labs, Umbra, and HawkEye 360; GPS; miniature CubeSats for education and research; and military/defense satellites.

Loading next visibility...
Identifier
68453, 2026-067AP
Orbit
SSO
Country
Flag of ITIT
Related business
Manufacturer
OHB-I
Mission
Operational spacecraft
Bus & Motor
EAGLET, Unknown motor
Mass
25 kg wet, 25 kg dry
Launch date (UTC)
2026-03-30 (3 months ago)
Launch vehicle
FALCON 9
Launch site
Air Force Western Test Range (AFWTR)
Object type
Payload
Rocket body
Debris
Shape & HBR
Unknown shape, 14.5 m
Radar Cross Section
Medium (>0.1 m² and <1 m²)

Expand to show TLE details & history
Last TLE update: 2 days ago

TLE from 2 days ago
0 IRIDE-MS1-EAG2-11
1 68453U 26067AP  26171.42275615  .00005955  00000-0  28898-3 0  9998
2 68453  97.4551 129.8811 0003339  52.2671 307.8865 15.18851209 12437
Epoch: 2026-06-20T10:08Z
TLE epoch observation values (Epoch: 2026-06-20T10:08:46.131Z)
Latitude
-0.00007°
Longitude
69.0513°
Altitude
510.987 km
Speed
7.609 km/s
True Right ascension
08h 39m 31s
True Declination
0° 00' 00"
Sunlit
Object was in daylight at epoch
Visualization orbit readout
Latitude
Unknown
Longitude
Unknown
Altitude
Unknown
Speed
Unknown
Apparent Right ascension
Unknown
Apparent Declination
Unknown
Sunlit
N/A
Visualization observer readout
Local Sidereal Time
12:30:19
Azimuth
Unknown
Elevation
Unknown
Doppler factor
Unknown
Orbital elements
Apogee altitude
508.58 km
Perigee altitude
503.982 km
Semi-major axis
6,884.418 km
Eccentricity
0.00033
Inclination
97.4551°
RAAN
129.8811°
Arg. of periapsis
52.2671°
True anomaly
307.85629°
Mean anomaly
307.8865°
Eccentric anomaly
307.8714°
Mean motion
3.79964 °/min
Orbital period
94.75 mins
BSTAR
0.00028898
Loading maneuver chart data...
Computing Atmospheric mass density...
Loading historical data...
Loading historical data...
Loading historical data...
Loading historical data...
Loading historical data...
Loading historical data...
Loading historical data...

Documentation

Showing up to 5 results
|